foto1
foto1
foto1
foto1
foto1

TAF LFBZ

TAF LFBZ 190500Z 1906/2006 18010KT CAVOK BECMG 1909/1911 09010KT PROB30 TEMPO 1913/1915 27012KT 1500 BR BKN004 TEMPO 2000/2006 BKN060

Accès Membres

Bienvenue sur le site de l'aéroclub Dassault Bréguet Biarritz.

L'aéroclub Dassault Breguet Biarritz est installé sur l'aéroport de Biarritz-Parme (LFBZ). Il a pour objectif de permettre à ses membres de découvrir le vol à moteur.

Vous trouverez sur ce site toutes les informations afin de découvrir notre activité. 

Les membres pourront se connecter pour accéder à certains éléments permettant de préparer un vol.

Bonne visite.

Plan d'accès:

 Logo Aéroclub

Réserver un avion

Pour réserver un avion cliquer sur le logo Openflyers

logo openflyers